Weather History for Peshawar, Pakistan

Change the Weather History Date:

Saturday, March 15, 2014

  Actual Average Record
Temperature  
Mean Temperature 66 °F -  
Max Temperature 71 °F 80 °F - ()
Min Temperature 60 °F 57 °F - ()
Growing Degree Days 16 (Base 50)    
Moisture  
Dew Point 53 °F    
Average Humidity 64    
Maximum Humidity 72    
Minimum Humidity 56    
Precipitation  
Precipitation 0.00 in 0.08 in - ()
Sea Level Pressure  
Sea Level Pressure 30.09 in    
Wind  
Wind Speed 0 mph ()    
Max Wind Speed 0 mph    
Max Gust Speed -    
Visibility 2.5 miles    
Events Rain    
T = Trace of Precipitation, MM = Missing Value Source: Averaged Metar Reports

Daily Weather History Graph

Daily Weather History Graph

Search for Another Location

Airport:

Trip Planner

Search our weather history database for the weather conditions in past years. The results will help you decide how hot, cold, wet, or windy it might be!

Date:

Astronomy

Mar. 15, 2014 Rise Set
Actual Time 6:24 AM PKT 6:21 PM PKT
Civil Twilight 5:59 AM PKT 6:46 PM PKT
Nautical Twilight 5:30 AM PKT 7:15 PM PKT
Astronomical Twilight 5:01 AM PKT 7:44 PM PKT
Moon 5:16 PM PKT (3/15) 5:19 AM PKT (3/15)
Length of Visible Light 12h 46m
Length of Day
11h 56m
Waxing Gibbous, 98% of the Moon is Illuminated
Mar 15
Waxing Gibbous
Mar 16
Full
Mar 24
Last Quarter
Mar 30
New
Apr 7
First Quarter

Hourly Weather History & Observations

Time (PKT) Temp. Dew Point Humidity Pressure Visibility Wind Dir Wind Speed Gust Speed Precip Events Conditions
12:00 AM 64.4 °F 51.8 °F 64% 30.04 in 2.5 mi Calm Calm - N/A   Haze
1:00 AM 64.4 °F 51.8 °F 64% 30.04 in 2.5 mi Calm Calm - N/A   Haze
2:00 AM 62.6 °F 51.8 °F 68% 30.04 in - North - - N/A Rain Rain
3:00 AM 62.6 °F 53.6 °F 72% 30.04 in 2.5 mi Calm Calm - N/A Rain Rain
4:00 AM 60.8 °F 50.0 °F 68% 30.04 in 2.5 mi Calm Calm - N/A   Haze
4:59 AM 60.8 °F 50.0 °F 68% 30.04 in 2.5 mi Calm Calm - N/A   Haze
6:00 AM 60.8 °F 51.8 °F 72% 30.06 in - North - - N/A   Haze
7:00 AM 62.6 °F 53.6 °F 72% 30.06 in - North - - N/A   Haze
8:00 AM 62.6 °F 53.6 °F 72% 30.09 in - North - - N/A   Haze
9:00 AM 66.2 °F 55.4 °F 68% 30.12 in - North - - N/A   Haze
10:00 AM 68.0 °F 55.4 °F 64% 30.12 in - North - - N/A   Haze
11:00 AM 69.8 °F 55.4 °F 60% 30.12 in - North - - N/A   Haze
12:00 PM 69.8 °F 53.6 °F 56% 30.12 in - North - - N/A   Haze
1:00 PM 71.6 °F 55.4 °F 57% 30.12 in - North - - N/A   Haze
2:00 PM 71.6 °F 55.4 °F 57% 30.09 in - North - - N/A   Haze
3:00 PM 71.6 °F 55.4 °F 57% 30.09 in - North - - N/A   Haze
4:00 PM 69.8 °F 53.6 °F 56% 30.09 in - North - - N/A   Haze
5:00 PM 69.8 °F 53.6 °F 56% 30.09 in - North - - N/A   Haze
6:00 PM 68.0 °F 53.6 °F 60% 30.09 in - North - - N/A   Haze
7:00 PM 64.4 °F 51.8 °F 64% 30.12 in - North - - N/A   Haze
8:00 PM 64.4 °F 51.8 °F 64% 30.12 in - North - - N/A   Haze
9:00 PM 62.6 °F 51.8 °F 68% 30.15 in - North - - N/A Rain Light Rain
10:00 PM 64.4 °F 51.8 °F 64% 30.15 in - North - - N/A   Haze
11:00 PM 62.6 °F 51.8 °F 68% 30.15 in - North - - N/A Rain Rain